Hilton Head Island, SC

12:38 AM EDT on August 26, 2016 (GMT -0400)
Hilton Head

Weather History for KHXD - January, 2014

Change the Weather History Date:

Thursday, January 9, 2014

  Actual Average Record
Temperature  
Mean Temperature 49 °F -  
Max Temperature 59 °F 58 °F 55 °F (2016)
Min Temperature 39 °F 39 °F 33 °F (2015)
Degree Days  
Heating Degree Days 16    
Moisture  
Dew Point 44 °F    
Average Humidity 83    
Maximum Humidity 100    
Minimum Humidity 48    
Precipitation  
Precipitation 0.03 in - - ()
Sea Level Pressure  
Sea Level Pressure 30.42 in    
Wind  
Wind Speed 9 mph (North)    
Max Wind Speed 13 mph    
Max Gust Speed 21 mph    
Visibility 9 miles    
Events      
Averages and records for this station are not official NWS values.
T = Trace of Precipitation, MM = Missing Value Source: NWS Daily Summary

Daily Weather History Graph

Daily Weather History Graph

Search for Another Location

Airport or City:

Trip Planner

Search our weather history database for the weather conditions in past years. The results will help you decide how hot, cold, wet, or windy it might be!

Date:

Astronomy

Jan. 09, 2014 Rise Set
Actual Time 7:24 AM EST 5:35 PM EST
Civil Twilight 6:57 AM EST 6:02 PM EST
Nautical Twilight 6:27 AM EST 6:32 PM EST
Astronomical Twilight 5:58 AM EST 7:02 PM EST
Moon 12:54 PM EST (1/9) 1:39 AM EST (1/9)
Length of Visible Light 11h 04m
Length of Day
10h 10m
Waxing Gibbous, 66% of the Moon is Illuminated
Jan 9
Waxing Gibbous
Jan 15
Full
Jan 24
Last Quarter
Jan 30
New
Feb 6
First Quarter

Hourly Weather History & Observations

Time (EST) Temp. Windchill Dew Point Humidity Pressure Visibility Wind Dir Wind Speed Gust Speed Precip Events Conditions
12:15 AM 39.2 °F 33.0 °F 33.8 °F 81% 30.48 in 10.0 mi North 9.2 mph - 0.00 in   Partly Cloudy
12:35 AM 39.2 °F 33.0 °F 33.8 °F 81% 30.47 in 10.0 mi North 9.2 mph - 0.00 in   Clear
12:55 AM 39.2 °F 34.2 °F 33.8 °F 81% 30.46 in 10.0 mi North 6.9 mph - 0.00 in   Clear
1:15 AM 39.2 °F 32.5 °F 33.8 °F 81% 30.45 in 10.0 mi North 10.4 mph - 0.00 in   Partly Cloudy
1:35 AM 39.2 °F 33.0 °F 33.8 °F 81% 30.44 in 10.0 mi North 9.2 mph - 0.00 in   Clear
1:55 AM 39.2 °F 34.2 °F 33.8 °F 81% 30.44 in 10.0 mi North 6.9 mph - 0.00 in   Partly Cloudy
2:15 AM 41.0 °F 35.2 °F 33.8 °F 76% 30.44 in 10.0 mi North 9.2 mph - 0.00 in   Partly Cloudy
2:35 AM 41.0 °F 35.2 °F 35.6 °F 81% 30.44 in 10.0 mi North 9.2 mph - 0.00 in   Partly Cloudy
2:55 AM 42.8 °F 37.0 °F 35.6 °F 76% 30.44 in 10.0 mi North 10.4 mph - 0.00 in   Partly Cloudy
3:15 AM 42.8 °F 37.0 °F 35.6 °F 76% 30.44 in 10.0 mi North 10.4 mph - 0.00 in   Partly Cloudy
3:35 AM 42.8 °F 37.5 °F 35.6 °F 76% 30.44 in 10.0 mi North 9.2 mph - 0.00 in   Partly Cloudy
3:55 AM 42.8 °F 38.0 °F 35.6 °F 76% 30.44 in 10.0 mi North 8.1 mph - 0.00 in   Partly Cloudy
4:15 AM 42.8 °F 38.0 °F 37.4 °F 81% 30.44 in 10.0 mi North 8.1 mph - 0.00 in   Clear
4:35 AM 42.8 °F 37.5 °F 37.4 °F 81% 30.44 in 10.0 mi North 9.2 mph - 0.00 in   Clear
4:55 AM 42.8 °F 37.0 °F 37.4 °F 81% 30.43 in 10.0 mi North 10.4 mph - 0.00 in   Partly Cloudy
5:15 AM 42.8 °F 36.6 °F 37.4 °F 81% 30.43 in 10.0 mi North 11.5 mph - 0.00 in   Scattered Clouds
5:35 AM 42.8 °F 37.0 °F 37.4 °F 81% 30.43 in 10.0 mi North 10.4 mph - 0.00 in   Scattered Clouds
6:50 AM 44.6 °F 38.8 °F 39.2 °F 81% 30.42 in 10.0 mi North 11.5 mph - N/A   Mostly Cloudy
7:50 AM 44.6 °F 38.8 °F 37.4 °F 76% 30.45 in 10.0 mi North 11.5 mph - N/A   Mostly Cloudy
9:50 AM 53.6 °F - 39.2 °F 58% 30.48 in 10.0 mi NNE 6.9 mph - N/A   Scattered Clouds
10:50 AM 55.4 °F - 37.4 °F 51% 30.48 in 10.0 mi NNE 11.5 mph - N/A   Scattered Clouds
11:50 AM 59.0 °F - 39.2 °F 48% 30.46 in 10.0 mi NNE 11.5 mph - N/A   Scattered Clouds
12:50 PM 59.0 °F - 39.2 °F 48% 30.46 in 10.0 mi NNE 12.7 mph 20.7 mph N/A   Mostly Cloudy
1:50 PM 59.0 °F - 50.0 °F 72% 30.40 in 10.0 mi NNE 10.4 mph - N/A   Overcast
2:50 PM 57.2 °F - 51.8 °F 82% 30.39 in 10.0 mi NNE 10.4 mph - N/A   Overcast
4:50 PM 55.4 °F - 53.6 °F 94% 30.39 in 9.0 mi NNE 10.4 mph - N/A   Overcast
6:50 PM 53.6 °F - 51.8 °F 94% 30.39 in 10.0 mi NNE 9.2 mph - N/A   Overcast
7:50 PM 53.6 °F - 51.8 °F 94% 30.40 in 9.0 mi NNE 8.1 mph - N/A   Overcast
8:15 PM 55.4 °F - 51.8 °F 88% 30.41 in 2.5 mi North 8.1 mph - 0.00 in   Overcast
8:35 PM 53.6 °F - 53.6 °F 100% 30.41 in 2.5 mi North 9.2 mph - 0.03 in   Light Drizzle
8:50 PM 53.6 °F - 53.6 °F 100% 30.41 in 5.0 mi NNE 6.9 mph - N/A   Overcast
8:55 PM 53.6 °F - 53.6 °F 100% 30.41 in 8.0 mi North 8.1 mph - 0.03 in   Overcast
9:15 PM 53.6 °F - 53.6 °F 100% 30.41 in 6.0 mi North 6.9 mph - 0.00 in   Overcast
9:35 PM 55.4 °F - 53.6 °F 94% 30.40 in 5.0 mi North 8.1 mph - 0.00 in   Overcast
9:55 PM 53.6 °F - 53.6 °F 100% 30.40 in 7.0 mi North 8.1 mph - 0.00 in   Overcast
10:15 PM 53.6 °F - 53.6 °F 100% 30.40 in 10.0 mi NNE 8.1 mph - 0.00 in   Overcast
10:35 PM 53.6 °F - 53.6 °F 100% 30.39 in 9.0 mi North 5.8 mph - 0.00 in   Drizzle
10:55 PM 55.4 °F - 53.6 °F 94% 30.38 in 9.0 mi NNE 8.1 mph - 0.00 in   Overcast
11:15 PM 55.4 °F - 53.6 °F 94% 30.37 in 8.0 mi NNE 8.1 mph - 0.00 in   Overcast
11:35 PM 55.4 °F - 53.6 °F 94% 30.36 in 8.0 mi NNE 10.4 mph 17.3 mph 0.00 in   Mostly Cloudy
11:55 PM 55.4 °F - 53.6 °F 94% 30.35 in 7.0 mi NNE 12.7 mph 19.6 mph 0.00 in   Overcast